Chatham, MA

2:56 AM EDT on June 29, 2017 (GMT -0400)
Chatham Municipal

Weather History for KCQX - November, 2013

Change the Weather History Date:

Monday, November 4, 2013

  Actual Average Record
Temperature  
Mean Temperature 41 °F -  
Max Temperature 43 °F 52 °F 67 °F (1977)
Min Temperature 39 °F 40 °F 32 °F (1998)
Degree Days  
Heating Degree Days 24    
Moisture  
Dew Point 25 °F    
Average Humidity 53    
Maximum Humidity 60    
Minimum Humidity 45    
Precipitation  
Precipitation 0.00 in - - ()
Sea Level Pressure  
Sea Level Pressure 30.58 in    
Wind  
Wind Speed 7 mph (NNE)    
Max Wind Speed 14 mph    
Max Gust Speed 23 mph    
Visibility 10 miles    
Events      
Averages and records for this station are not official NWS values.
T = Trace of Precipitation, MM = Missing Value Source: NWS Daily Summary

Daily Weather History Graph

Daily Weather History Graph

Search for Another Location

Airport or City:

Trip Planner

Search our weather history database for the weather conditions in past years. The results will help you decide how hot, cold, wet, or windy it might be!

Date:

Astronomy

Nov. 04, 2013 Rise Set
Actual Time 6:15 AM EST 4:30 PM EST
Civil Twilight 5:46 AM EST 4:59 PM EST
Nautical Twilight 5:13 AM EST 5:32 PM EST
Astronomical Twilight 4:41 AM EST 6:05 PM EST
Moon 7:23 AM EST (11/4) 5:31 PM EST (11/4)
Length of Visible Light 11h 12m
Length of Day
10h 14m
New Moon, 2% of the Moon is Illuminated
Nov 4
New Moon
Nov 10
First Quarter
Nov 17
Full
Nov 25
Last Quarter
Dec 2
New

Hourly Weather History & Observations

Time (EST) Temp. Windchill Dew Point Humidity Pressure Visibility Wind Dir Wind Speed Gust Speed Precip Events Conditions
12:52 AM 42.1 °F 37.1 °F 26.1 °F 53% 30.37 in 10.0 mi North 8.1 mph 17.3 mph N/A   Overcast
1:52 AM 41.0 °F 37.1 °F 25.0 °F 53% 30.41 in 10.0 mi Variable 5.8 mph - N/A   Mostly Cloudy
2:52 AM 39.9 °F 35.8 °F 24.1 °F 53% 30.43 in 10.0 mi Variable 5.8 mph - N/A   Mostly Cloudy
3:52 AM 39.9 °F 36.7 °F 24.1 °F 53% 30.46 in 10.0 mi Variable 4.6 mph - N/A   Mostly Cloudy
4:52 AM 39.9 °F 35.8 °F 23.0 °F 51% 30.48 in 10.0 mi North 5.8 mph - N/A   Mostly Cloudy
5:52 AM 39.0 °F 35.7 °F 23.0 °F 53% 30.51 in 10.0 mi Variable 4.6 mph - N/A   Mostly Cloudy
6:52 AM 39.0 °F 34.0 °F 23.0 °F 53% 30.54 in 10.0 mi Variable 6.9 mph - N/A   Scattered Clouds
7:52 AM 41.0 °F 37.1 °F 24.1 °F 51% 30.56 in 10.0 mi Variable 5.8 mph 17.3 mph N/A   Overcast
8:52 AM 41.0 °F 35.2 °F 24.1 °F 51% 30.57 in 10.0 mi North 9.2 mph 18.4 mph N/A   Overcast
9:52 AM 42.1 °F 34.9 °F 24.1 °F 49% 30.58 in 10.0 mi NNE 13.8 mph 23.0 mph N/A   Overcast
10:52 AM 42.1 °F 37.1 °F 25.0 °F 51% 30.59 in 10.0 mi NNE 8.1 mph 21.9 mph N/A   Overcast
11:52 AM 43.0 °F 38.2 °F 23.0 °F 45% 30.60 in 10.0 mi North 8.1 mph 21.9 mph N/A   Scattered Clouds
12:52 PM 42.1 °F 37.7 °F 23.0 °F 47% 30.61 in 10.0 mi Variable 6.9 mph 20.7 mph N/A   Mostly Cloudy
1:52 PM 42.1 °F 36.1 °F 23.0 °F 47% 30.61 in 10.0 mi North 10.4 mph 19.6 mph N/A   Mostly Cloudy
2:52 PM 41.0 °F 36.4 °F 24.1 °F 51% 30.62 in 10.0 mi Variable 6.9 mph - N/A   Mostly Cloudy
3:52 PM 39.9 °F 33.9 °F 24.1 °F 53% 30.63 in 10.0 mi NNE 9.2 mph - N/A   Mostly Cloudy
4:52 PM 39.0 °F 36.8 °F 26.1 °F 60% 30.66 in 10.0 mi Variable 3.5 mph - N/A   Overcast
5:52 PM 39.9 °F 36.7 °F 26.1 °F 58% 30.66 in 10.0 mi Variable 4.6 mph - N/A   Overcast
6:52 PM 39.9 °F 35.8 °F 26.1 °F 58% 30.68 in 10.0 mi Variable 5.8 mph - N/A   Overcast
7:52 PM 39.9 °F 36.7 °F 25.0 °F 55% 30.69 in 10.0 mi Variable 4.6 mph - N/A   Overcast
8:52 PM 39.9 °F 37.8 °F 26.1 °F 58% 30.69 in 10.0 mi Variable 3.5 mph - N/A   Overcast
9:52 PM 41.0 °F 35.8 °F 27.0 °F 57% 30.67 in 10.0 mi NE 8.1 mph - N/A   Overcast
10:52 PM 41.0 °F 39.0 °F 28.0 °F 60% 30.68 in 10.0 mi NE 3.5 mph - N/A   Overcast
11:52 PM 42.1 °F 38.4 °F 27.0 °F 55% 30.69 in 10.0 mi ENE 5.8 mph - N/A   Overcast